ROMMA est une association bénévole à but non lucratif. Votre soutien est indispensable : ADHERER à ROMMA ou FAIRE un DON

Crêts du Salève - (74, Haute-Savoie)

Salève (1270 m)   Longitude: 6° 10' 28'' E   Latitude: 46° 7' 42'' N Station romma n°73
 

Détail journalier du     <<     >>

Température Precipitation Humidité Vent Dir Rafale Dir. rafale Ensol.
Heure (°C) (mm) (%) (km/h) (km/h) (min)
01:00 21.90666ENE13ENE0
02:00 21.70668ENE11ENE0
03:00 20.80632E8E0
04:00 20.90614ENE11E0
05:00 20.70653NO8NO0
06:00 20.40682NO11O0
07:00 20.20683SO6SO10
08:00 20.30675SO8SO60
09:00 19.30697SO13OSO40
10:00 20.60666SSO15S50
11:00 21.30735SSO15ESE60
12:00 22.20688SE18S60
13:00 21.50728O19SO60
14:00 23.305813SO24SO60
15:00 23.905217OSO27SO60
16:00 25.205013SO24SO60
17:00 23.305811NNO21NNO30
18:00 21.10.66418O39O0
19:00 21.50.84820O48O0
20:00 19.806611E23ENE0
21:00 18.606612SE23ESE0
22:00 19.107216OSO34SSO0
23:00 18.707231S56SSE0
minuit 17.108137S66S0

Graphique du 10-08-2020

 

Serveur OMMA